N32AP KBCE-KTVL

Flight info

Callsign N32AP
Flight time N/A
Altitude 26000
Route BRYCE2 BCE YERIN
Aircraft BE60/L-SDFGRY/C

Departure

Time N/A
Airport Bryce Canyon Airport (KBCE)

Arrival

Time 2026-04-25 18:35
Airport Lake Tahoe Airport (KTVL)
Time Latitude Longitude Altitude Speed Heading
2026-04-25 17:39 38.48661 -116.15045 11903 ft 230 kts 282°
2026-04-25 17:39 38.49036 -116.17032 11907 ft 231 kts 282°
2026-04-25 17:39 38.49411 -116.19023 11901 ft 231 kts 282°
2026-04-25 17:40 38.49787 -116.21016 11898 ft 231 kts 282°
2026-04-25 17:40 38.50157 -116.22984 11900 ft 231 kts 282°
2026-04-25 17:40 38.50530 -116.24973 11895 ft 230 kts 282°
2026-04-25 17:40 38.50903 -116.26959 11903 ft 230 kts 282°
2026-04-25 17:41 38.51276 -116.28946 11904 ft 230 kts 282°
2026-04-25 17:41 38.51648 -116.30937 11903 ft 230 kts 281°
2026-04-25 17:41 38.52019 -116.32922 11901 ft 230 kts 282°
2026-04-25 17:41 38.52391 -116.34910 11903 ft 230 kts 282°
2026-04-25 17:42 38.52763 -116.36895 11905 ft 230 kts 282°
2026-04-25 17:42 38.53136 -116.38889 11911 ft 231 kts 282°
2026-04-25 17:42 38.53507 -116.40883 11911 ft 232 kts 282°
2026-04-25 17:42 38.53880 -116.42892 11910 ft 232 kts 282°
2026-04-25 17:43 38.54253 -116.44902 11902 ft 232 kts 282°
2026-04-25 17:43 38.54626 -116.46904 11896 ft 231 kts 282°
2026-04-25 17:43 38.54996 -116.48897 11900 ft 231 kts 282°
2026-04-25 17:43 38.55366 -116.50891 11902 ft 230 kts 282°
2026-04-25 17:44 38.55734 -116.52874 11901 ft 229 kts 282°
2026-04-25 17:44 38.56096 -116.54830 11914 ft 229 kts 282°
2026-04-25 17:44 38.56463 -116.56813 11915 ft 230 kts 282°
2026-04-25 17:44 38.56829 -116.58802 11908 ft 230 kts 282°
2026-04-25 17:45 38.57196 -116.60793 11914 ft 231 kts 281°
2026-04-25 17:45 38.57440 -116.62116 11909 ft 231 kts 281°
2026-04-25 17:45 38.57930 -116.64787 11912 ft 231 kts 281°
2026-04-25 17:45 38.58298 -116.66797 11926 ft 233 kts 281°
2026-04-25 17:46 38.58668 -116.68811 11905 ft 233 kts 282°
2026-04-25 17:46 38.59039 -116.70825 11909 ft 233 kts 282°
2026-04-25 17:46 38.59410 -116.72838 11906 ft 232 kts 282°
2026-04-25 17:46 38.59779 -116.74850 11910 ft 232 kts 282°
2026-04-25 17:47 38.60144 -116.76854 11909 ft 231 kts 281°
2026-04-25 17:47 38.60506 -116.78829 11909 ft 230 kts 281°
2026-04-25 17:47 38.60872 -116.80819 11908 ft 230 kts 281°
2026-04-25 17:47 38.61237 -116.82804 11913 ft 229 kts 281°
2026-04-25 17:48 38.61962 -116.86779 11915 ft 230 kts 281°
2026-04-25 17:48 38.62321 -116.88770 11911 ft 230 kts 281°
2026-04-25 17:48 38.62681 -116.90765 11907 ft 230 kts 281°
2026-04-25 17:49 38.63040 -116.92761 11915 ft 230 kts 281°
2026-04-25 17:49 38.63405 -116.94757 11908 ft 231 kts 281°
2026-04-25 17:49 38.63769 -116.96762 11908 ft 231 kts 281°
2026-04-25 17:49 38.64132 -116.98767 11905 ft 231 kts 281°
2026-04-25 17:50 38.64487 -117.00781 11926 ft 233 kts 281°
2026-04-25 17:50 38.64854 -117.02802 11912 ft 234 kts 281°
2026-04-25 17:50 38.65221 -117.04830 11917 ft 234 kts 282°
2026-04-25 17:50 38.65614 -117.06854 11912 ft 234 kts 281°
2026-04-25 17:51 38.65980 -117.08884 11908 ft 234 kts 281°
2026-04-25 17:51 38.66286 -117.10892 11904 ft 232 kts 276°
2026-04-25 17:51 38.66586 -117.12917 11902 ft 231 kts 281°
2026-04-25 17:51 38.66965 -117.14924 11907 ft 231 kts 282°
2026-04-25 17:52 38.67340 -117.16918 11907 ft 230 kts 282°
2026-04-25 17:52 38.67587 -117.18239 11908 ft 230 kts 282°
2026-04-25 17:52 38.68086 -117.20904 11912 ft 230 kts 282°
2026-04-25 17:52 38.68451 -117.22896 11918 ft 230 kts 282°
2026-04-25 17:53 38.68857 -117.24883 11932 ft 231 kts 284°
2026-04-25 17:53 38.69242 -117.26863 11928 ft 232 kts 281°
2026-04-25 17:53 38.69589 -117.28888 11914 ft 233 kts 281°
2026-04-25 17:53 38.69928 -117.30912 11916 ft 232 kts 281°
2026-04-25 17:54 38.70272 -117.32933 11921 ft 232 kts 281°
2026-04-25 17:54 38.70619 -117.34947 11919 ft 232 kts 281°
2026-04-25 17:54 38.70970 -117.36965 11939 ft 233 kts 281°
2026-04-25 17:54 38.71325 -117.38990 11907 ft 232 kts 281°
2026-04-25 17:55 38.71695 -117.40988 11924 ft 230 kts 281°
2026-04-25 17:55 38.72052 -117.42995 11928 ft 231 kts 280°
2026-04-25 17:55 38.72398 -117.44998 11926 ft 230 kts 280°
2026-04-25 17:55 38.72747 -117.47003 11928 ft 231 kts 280°
2026-04-25 17:56 38.73090 -117.48987 11940 ft 232 kts 279°
2026-04-25 17:56 38.73439 -117.51005 11936 ft 232 kts 279°
2026-04-25 17:56 38.73796 -117.53028 11927 ft 232 kts 280°
2026-04-25 17:56 38.74152 -117.55048 11938 ft 232 kts 280°
2026-04-25 17:57 38.74510 -117.57069 11936 ft 233 kts 280°
2026-04-25 17:57 38.74865 -117.59094 11930 ft 233 kts 279°
2026-04-25 17:57 38.75219 -117.61123 11932 ft 233 kts 280°
2026-04-25 17:57 38.75334 -117.61778 11928 ft 233 kts 279°
2026-04-25 17:58 38.75921 -117.65132 11929 ft 231 kts 279°
2026-04-25 17:58 38.76271 -117.67134 11930 ft 230 kts 279°
2026-04-25 17:58 38.76625 -117.69133 11936 ft 229 kts 281°
2026-04-25 17:58 38.76974 -117.71127 11934 ft 228 kts 280°
2026-04-25 17:59 38.77318 -117.73115 11933 ft 228 kts 280°
2026-04-25 17:59 38.77659 -117.75093 11936 ft 227 kts 280°
2026-04-25 17:59 38.77999 -117.77067 11935 ft 226 kts 280°
2026-04-25 17:59 38.78340 -117.79042 11943 ft 227 kts 280°
2026-04-25 18:00 38.78676 -117.80995 11942 ft 227 kts 280°
2026-04-25 18:00 38.79012 -117.82972 11929 ft 226 kts 280°
2026-04-25 18:00 38.79351 -117.84944 11938 ft 227 kts 280°
2026-04-25 18:00 38.79694 -117.86921 11944 ft 228 kts 280°
2026-04-25 18:01 38.80040 -117.88905 11947 ft 229 kts 281°
2026-04-25 18:01 38.80385 -117.90898 11940 ft 229 kts 280°
2026-04-25 18:01 38.80730 -117.92897 11931 ft 229 kts 280°
2026-04-25 18:01 38.81074 -117.94892 11931 ft 229 kts 280°
2026-04-25 18:02 38.81417 -117.96885 11928 ft 228 kts 280°
2026-04-25 18:02 38.81757 -117.98871 11931 ft 228 kts 280°
2026-04-25 18:02 38.82099 -118.00855 11932 ft 228 kts 281°
2026-04-25 18:02 38.82440 -118.02843 11933 ft 228 kts 281°
2026-04-25 18:03 38.82777 -118.04826 11935 ft 228 kts 281°
2026-04-25 18:03 38.83114 -118.06810 11942 ft 228 kts 280°
2026-04-25 18:03 38.83448 -118.08795 11935 ft 228 kts 281°
2026-04-25 18:03 38.83783 -118.10760 11935 ft 228 kts 280°
2026-04-25 18:04 38.84122 -118.12749 11931 ft 228 kts 281°
2026-04-25 18:04 38.84461 -118.14739 11929 ft 228 kts 281°
2026-04-25 18:04 38.84801 -118.16728 11933 ft 228 kts 281°
2026-04-25 18:04 38.85139 -118.18722 11933 ft 228 kts 281°
2026-04-25 18:05 38.85477 -118.20717 11927 ft 228 kts 281°
2026-04-25 18:05 38.85812 -118.22703 11933 ft 228 kts 281°
2026-04-25 18:05 38.86148 -118.24705 11933 ft 229 kts 281°
2026-04-25 18:05 38.86481 -118.26677 11931 ft 229 kts 281°
2026-04-25 18:06 38.86817 -118.28666 11934 ft 229 kts 281°
2026-04-25 18:06 38.87154 -118.30666 11932 ft 229 kts 281°
2026-04-25 18:06 38.87492 -118.32661 11922 ft 228 kts 281°
2026-04-25 18:06 38.87829 -118.34663 11930 ft 229 kts 281°
2026-04-25 18:07 38.88164 -118.36663 11928 ft 230 kts 281°
2026-04-25 18:07 38.88500 -118.38666 11921 ft 230 kts 281°
2026-04-25 18:07 38.88835 -118.40669 11922 ft 229 kts 281°
2026-04-25 18:07 38.89167 -118.42648 11923 ft 229 kts 281°
2026-04-25 18:08 38.89503 -118.44651 11926 ft 230 kts 281°
2026-04-25 18:08 38.89845 -118.46677 11921 ft 230 kts 281°
2026-04-25 18:08 38.90180 -118.48681 11922 ft 230 kts 281°
2026-04-25 18:08 38.90512 -118.50685 11922 ft 229 kts 281°
2026-04-25 18:09 38.90839 -118.52662 11921 ft 229 kts 281°
2026-04-25 18:09 38.91171 -118.54663 11919 ft 229 kts 281°
2026-04-25 18:09 38.91503 -118.56660 11916 ft 228 kts 281°
2026-04-25 18:09 38.91616 -118.57341 11917 ft 228 kts 281°
2026-04-25 18:10 38.92164 -118.60651 11920 ft 228 kts 281°
2026-04-25 18:10 38.92493 -118.62644 11924 ft 228 kts 281°
2026-04-25 18:10 38.92822 -118.64635 11918 ft 227 kts 281°
2026-04-25 18:10 38.93149 -118.66618 11919 ft 227 kts 281°
2026-04-25 18:11 38.93474 -118.68585 11918 ft 227 kts 281°
2026-04-25 18:11 38.93803 -118.70584 11917 ft 227 kts 281°
2026-04-25 18:11 38.94130 -118.72572 11916 ft 227 kts 280°
2026-04-25 18:11 38.94456 -118.74555 11916 ft 227 kts 280°
2026-04-25 18:12 38.94781 -118.76538 11916 ft 227 kts 280°
2026-04-25 18:12 38.95107 -118.78521 11914 ft 227 kts 280°
2026-04-25 18:12 38.95432 -118.80504 11914 ft 227 kts 280°
2026-04-25 18:12 38.95757 -118.82488 11914 ft 227 kts 280°
2026-04-25 18:13 38.96077 -118.84448 11913 ft 227 kts 280°
2026-04-25 18:13 38.96401 -118.86435 11907 ft 227 kts 280°
2026-04-25 18:13 38.96724 -118.88418 11901 ft 226 kts 281°
2026-04-25 18:14 38.97363 -118.92344 11907 ft 224 kts 280°
2026-04-25 18:14 38.97682 -118.94309 11913 ft 225 kts 280°
2026-04-25 18:14 38.98058 -118.96258 11912 ft 226 kts 285°
2026-04-25 18:14 38.98588 -118.98170 11912 ft 227 kts 289°
2026-04-25 18:15 38.99171 -119.00065 11904 ft 228 kts 290°
2026-04-25 18:15 38.99759 -119.01967 11841 ft 230 kts 290°
2026-04-25 18:15 39.00354 -119.03885 11802 ft 232 kts 290°
2026-04-25 18:15 39.00951 -119.05813 11752 ft 232 kts 290°
2026-04-25 18:16 39.01540 -119.07722 11712 ft 233 kts 290°
2026-04-25 18:16 39.02139 -119.09666 11669 ft 233 kts 290°
2026-04-25 18:16 39.03334 -119.13556 11598 ft 234 kts 290°
2026-04-25 18:17 39.03929 -119.15502 11558 ft 234 kts 290°
2026-04-25 18:17 39.04527 -119.17452 11525 ft 234 kts 290°
2026-04-25 18:17 39.05123 -119.19397 11482 ft 234 kts 290°
2026-04-25 18:17 39.05721 -119.21349 11446 ft 234 kts 290°
2026-04-25 18:18 39.06316 -119.23295 11399 ft 234 kts 290°
2026-04-25 18:18 39.06910 -119.25241 11362 ft 234 kts 290°
2026-04-25 18:18 39.07497 -119.27164 11329 ft 234 kts 290°
2026-04-25 18:18 39.08092 -119.29113 11295 ft 234 kts 289°
2026-04-25 18:19 39.08685 -119.31062 11269 ft 234 kts 290°
2026-04-25 18:19 39.09279 -119.33011 11252 ft 234 kts 290°
2026-04-25 18:19 39.09871 -119.34958 11230 ft 234 kts 290°
2026-04-25 18:19 39.10463 -119.36905 11205 ft 234 kts 289°
2026-04-25 18:20 39.11054 -119.38853 11173 ft 233 kts 290°
2026-04-25 18:20 39.11646 -119.40801 11160 ft 233 kts 289°
2026-04-25 18:20 39.12232 -119.42742 11160 ft 232 kts 289°
2026-04-25 18:20 39.12818 -119.44678 11143 ft 232 kts 289°
2026-04-25 18:21 39.13401 -119.46608 11114 ft 231 kts 289°
2026-04-25 18:21 39.13984 -119.48539 11104 ft 231 kts 289°
2026-04-25 18:21 39.14567 -119.50471 11105 ft 231 kts 289°
2026-04-25 18:21 39.15150 -119.52398 11096 ft 231 kts 289°
2026-04-25 18:22 39.15726 -119.54303 11077 ft 231 kts 289°
2026-04-25 18:22 39.15921 -119.54953 11068 ft 230 kts 289°
2026-04-25 18:22 39.16884 -119.58155 10982 ft 230 kts 289°
2026-04-25 18:22 39.17464 -119.60072 10959 ft 228 kts 289°
2026-04-25 18:23 39.18042 -119.61974 10974 ft 227 kts 289°
2026-04-25 18:23 39.18614 -119.63867 10972 ft 226 kts 289°
2026-04-25 18:23 39.18992 -119.65118 10974 ft 226 kts 289°
2026-04-25 18:23 39.19556 -119.67007 10965 ft 225 kts 289°
2026-04-25 18:24 39.20120 -119.68893 10966 ft 225 kts 289°
2026-04-25 18:24 39.20686 -119.70773 10968 ft 225 kts 289°
2026-04-25 18:24 39.21250 -119.72649 10970 ft 224 kts 289°
2026-04-25 18:24 39.21813 -119.74526 10970 ft 224 kts 289°
2026-04-25 18:25 39.22369 -119.76405 10968 ft 224 kts 288°
2026-04-25 18:25 39.22929 -119.78271 10966 ft 223 kts 289°
2026-04-25 18:25 39.23490 -119.80144 10965 ft 223 kts 289°
2026-04-25 18:25 39.24026 -119.82014 10964 ft 221 kts 283°
2026-04-25 18:26 39.24201 -119.83961 10960 ft 218 kts 267°
2026-04-25 18:26 39.23940 -119.85872 10917 ft 217 kts 252°
2026-04-25 18:26 39.23265 -119.87620 10866 ft 219 kts 234°
2026-04-25 18:26 39.22281 -119.89119 10801 ft 219 kts 231°
2026-04-25 18:27 39.21356 -119.90664 10784 ft 221 kts 234°
2026-04-25 18:27 39.20445 -119.92250 10727 ft 214 kts 233°
2026-04-25 18:27 39.19589 -119.93704 10760 ft 196 kts 233°
2026-04-25 18:27 39.18761 -119.95065 10664 ft 192 kts 231°
2026-04-25 18:28 39.17769 -119.96244 10426 ft 195 kts 217°
2026-04-25 18:28 39.16569 -119.97079 10186 ft 197 kts 204°
2026-04-25 18:28 39.15232 -119.97501 9949 ft 198 kts 191°
2026-04-25 18:29 39.12469 -119.97307 9449 ft 199 kts 182°
2026-04-25 18:29 39.11094 -119.97253 9286 ft 193 kts 181°
2026-04-25 18:30 39.07222 -119.96900 9075 ft 181 kts 180°
2026-04-25 18:30 39.06034 -119.96777 8851 ft 164 kts 178°
2026-04-25 18:30 39.04931 -119.96700 8625 ft 155 kts 184°
2026-04-25 18:30 39.03877 -119.96849 8412 ft 150 kts 194°
2026-04-25 18:31 39.02865 -119.97036 8312 ft 140 kts 191°
2026-04-25 18:31 39.01991 -119.97167 8291 ft 117 kts 190°
2026-04-25 18:31 39.01219 -119.97304 8274 ft 107 kts 194°
2026-04-25 18:31 39.00493 -119.97443 8286 ft 103 kts 194°
2026-04-25 18:32 38.99784 -119.97575 8295 ft 103 kts 191°
2026-04-25 18:32 38.99061 -119.97713 8249 ft 108 kts 192°
2026-04-25 18:32 38.98331 -119.97813 8178 ft 105 kts 191°
2026-04-25 18:32 38.97611 -119.97873 8063 ft 106 kts 188°
2026-04-25 18:33 38.96881 -119.97989 7935 ft 106 kts 192°
2026-04-25 18:33 38.96175 -119.98129 7852 ft 103 kts 192°
2026-04-25 18:33 38.95463 -119.98231 7682 ft 104 kts 188°
2026-04-25 18:33 38.94745 -119.98350 7496 ft 103 kts 189°
2026-04-25 18:34 38.94027 -119.98489 7300 ft 104 kts 191°
2026-04-25 18:34 38.93333 -119.98624 7174 ft 99 kts 192°
2026-04-25 18:34 38.92640 -119.98784 7026 ft 101 kts 191°
2026-04-25 18:34 38.91943 -119.98926 6922 ft 99 kts 192°
2026-04-25 18:35 38.91257 -119.99052 6708 ft 99 kts 191°
2026-04-25 18:35 38.90582 -119.99192 6343 ft 100 kts 193°
2026-04-25 18:35 38.89976 -119.99367 6267 ft 73 kts 193°
2026-04-25 18:35 38.89625 -119.99470 6262 ft 44 kts 193°
2026-04-25 18:36 38.89368 -119.99543 6257 ft 29 kts 192°
2026-04-25 18:36 38.89268 -119.99629 6260 ft 0 kts 222°
2026-04-25 18:37 38.89266 -119.99631 6260 ft 3 kts 222°
2026-04-25 18:37 38.89232 -119.99678 6261 ft 10 kts 254°
2026-04-25 18:37 38.89239 -119.99726 6264 ft 1 kts 284°
2026-04-25 18:37 38.89265 -119.99750 6264 ft 9 kts 358°
2026-04-25 18:38 38.89326 -119.99742 6264 ft 11 kts
2026-04-25 18:38 38.89356 -119.99721 6264 ft 3 kts 63°
2026-04-25 18:38 38.89354 -119.99704 6264 ft 1 kts 143°
2026-04-25 18:38 38.89338 -119.99703 6264 ft 5 kts 187°
2026-04-25 18:39 38.89336 -119.99704 6264 ft 1 kts 189°
2026-04-25 18:39 38.89335 -119.99704 6264 ft 0 kts 193°
2026-04-25 18:39 38.89329 -119.99708 6264 ft 0 kts 231°
2026-04-25 18:39 38.89328 -119.99712 6264 ft 1 kts 263°
2026-04-25 18:40 38.89328 -119.99715 6264 ft 0 kts 279°